Regional Weather Roundup
Issued by NWS Cleveland, OH

Home | Current Version | Previous Version | Graphics & Text | Print | Product List | Glossary On
Versions: 1 2 3 4 5 6 7 8 9 10 11 12 13 14 15 16 17 18 19 20 21 22 23 24 25 26 27 28 29 30 31 32 33 34 35 36 37 38 39 40 41 42 43 44 45 46 47 48 49 50
000
ASUS41 KCLE 050510
RWRCLE
OHIO REGIONAL WEATHER ROUNDUP
NATIONAL WEATHER SERVICE CLEVELAND, OH
100 AM EDT TUE MAY 05 2015

NOTE: "FAIR" INDICATES FEW OR NO CLOUDS BELOW 12,000 FEET WITH NO
SIGNIFICANT WEATHER AND/OR OBSTRUCTIONS TO VISIBILITY.

OHZ001>008-015>018-024>027-034-035-043-044-050600-
   NORTHWEST OHIO

CITY           SKY/WX    TMP DP  RH WIND       PRES   REMARKS
DEFIANCE       CLOUDY    61  59  93 CALM      30.19S FOG
FINDLAY        CLOUDY    61  58  90 S6        30.19S FOG
TOLEDO EXPRESS MOCLDY    61  59  93 CALM      30.18S FOG
TOLEDO EXEC    MOCLDY    60  56  86 SW6       30.19S
LIMA           CLOUDY    61  59  93 S6        30.21R FOG
$$

OHZ009>014-019>023-028>033-038-089-050600-
   NORTHEAST OHIO

CITY           SKY/WX    TMP DP  RH WIND       PRES   REMARKS
CLE-HOPKINS    MOCLDY    61  57  87 CALM      30.22S
CLE-LAKEFRONT  CLOUDY    65  57  75 S3        30.19R
CUY CO. ARPT   NOT AVBL
LORAIN-ELYRIA  MOCLDY    58  57  97 SW5       30.20S
ASHTABULA      FOG       56  56 100 CALM      30.22S VSB 3/4
AKRON-CANTON   MOCLDY    60  57  89 S3        30.22R FOG
WOOSTER        FOG       56  55  97 CALM      30.22R VSB 1/4
MANSFIELD      CLOUDY    59  59 100 S6        30.22R FOG
YOUNGSTOWN     MOCLDY    59  57  93 SW3       30.22R
$$

OHZ042-051>053-060>062-070>072-077>081-050600-
  SOUTHWEST OHIO

CITY           SKY/WX    TMP DP  RH WIND       PRES   REMARKS
CINC-COVINGTON MOCLDY    68  57  68 S6        30.20S
CINC-LUNKEN    CLOUDY    63  62  97 CALM      30.21R
HAMILTON       CLOUDY    66  59  78 NW3       30.22R
DAYTON         LGT RAIN  64  62  93 CALM      30.24S FOG
WRIGHT-PAT AFB LGT RAIN  63  63 100 NE2       30.23F
DAYTON GENERAL CLOUDY    62  61  96 NE9       30.21F
WILMINGTON     CLOUDY    65  55  70 NW9       30.22R
$$

OHZ036-037-039>041-045>050-054>059-063>069-073>076-082>088-050600-
  CENTRAL AND SOUTHEAST OHIO

CITY           SKY/WX    TMP DP  RH WIND       PRES   REMARKS
COLUMBUS       CLOUDY    62  61  96 N5        30.22R FOG
OSU AIRPORT    FOG       62  61  96 CALM      30.22R VSB 3/4
BOLTON FIELD   CLOUDY    62  60  93 N6        30.22R FOG
RICKENBACK AFB MOCLDY    61  58  91 CALM      30.21R
NEWARK         LGT RAIN  62  60  93 CALM      30.22R FOG
MARION         MOCLDY    60  58  92 S3        30.22R FOG
LANCASTER      CLOUDY    62  59  90 S5        30.22S
ZANESVILLE     CLOUDY    61  59  93 S5        30.22R FOG
NEW PHILLY     CLOUDY    64  61  90 CALM      30.22S FOG
$$



USA.gov is the U.S. government's official web portal to all federal, state and local government web resources and services.